Date String (YYYY-MM-DD hh:mm:ss) UTC,Instrument flags,Ambient pressure (hPa),Sample flow (lpm),Bypass flow (lpm),Sample temperature (°C),Ambient temperature (°C),ASC tube jacket temperature (°C),LED temperature (°C),Box temperature (°C),Sample RH (%),Span deviation,Mass concentration (μg/m³),Mass concentration (μg/m³),Mass concentration (μg/m³)
DateTimeUTC,F1_M11,P_M11,Q1_M11,Q2_M11,T1_M11,T2_M11,T3_M11,T4_M11,T5_M11,U1_M11,ZSPAN_M11,X0_M11,X2_M11,X1_M11
2022-12-31 12:00:00,,0813.1,4.98,0.00,22.1,21.1,00.0,31.0,23.9,11.1,0000.0,0015.26,0011.47,0011.20
2022-12-31 12:01:00,,0813.1,5.03,0.00,22.2,22.2,00.0,31.0,24.2,11.0,0000.0,0015.42,0011.53,0011.24
2022-12-31 12:02:00,,0813.1,5.02,0.00,22.3,22.8,00.0,31.0,24.4,11.0,0000.6,0015.64,0011.69,0011.38
2022-12-31 12:03:00,,0813.0,4.99,0.00,22.4,22.6,00.0,31.1,24.4,10.9,0000.0,0015.92,0011.99,0011.67
2022-12-31 12:04:00,,0813.2,4.98,0.00,22.4,22.2,00.0,31.1,24.3,10.9,0000.5,0016.39,0012.42,0012.07
2022-12-31 12:05:00,,0813.1,4.99,0.00,22.4,21.9,00.0,31.2,24.3,10.8,0000.7,0016.95,0012.86,0012.49
2022-12-31 12:06:00,,0812.8,5.03,0.00,22.4,21.6,00.0,31.2,24.2,10.8,0000.5,0017.48,0013.11,0012.71
2022-12-31 12:07:00,,0812.8,5.04,0.00,22.4,21.4,00.0,31.2,24.2,10.8,0001.9,0017.72,0013.24,0012.84
2022-12-31 12:08:00,,0812.9,4.97,0.00,22.4,21.3,00.0,31.2,24.2,10.9,0002.2,0017.68,0013.24,0012.87
2022-12-31 12:09:00,,0812.9,4.97,0.00,22.4,21.2,00.0,31.2,24.1,10.9,0002.4,0017.60,0013.20,0012.83
2022-12-31 12:10:00,,0812.9,5.01,0.00,22.4,21.1,00.0,31.2,24.1,10.9,0000.0,0017.03,0013.19,0012.81
2022-12-31 12:11:00,,0812.8,4.99,0.00,22.4,21.0,00.0,31.2,24.1,11.4,0000.0,0016.52,0012.96,0012.58
2022-12-31 12:12:00,,0812.9,5.05,0.00,22.4,21.0,00.0,31.2,24.1,11.6,0000.0,0016.08,0012.61,0012.22
2022-12-31 12:13:00,,0812.7,4.99,0.00,22.3,20.9,00.0,31.2,24.0,11.3,0000.0,0015.85,0012.51,0012.14
2022-12-31 12:14:00,,0812.9,4.97,0.00,22.3,20.9,00.0,31.2,24.0,11.3,0000.0,0015.69,0012.34,0011.98
2022-12-31 12:15:00,,0812.9,5.07,0.00,22.3,20.9,00.0,31.2,24.0,11.4,0000.0,0015.42,0012.05,0011.71
2022-12-31 12:16:00,,0812.9,5.01,0.00,22.3,20.9,00.0,31.2,24.0,11.4,0000.5,0014.86,0011.73,0011.41
2022-12-31 12:17:00,,0812.8,4.98,0.00,22.3,20.9,00.0,31.2,23.9,11.5,0000.9,0014.14,0011.43,0011.16
2022-12-31 12:18:00,,0812.7,4.97,0.00,22.2,20.7,00.0,31.1,23.8,11.7,0000.2,0013.71,0011.11,0010.85
2022-12-31 12:19:00,,0812.8,4.99,0.00,22.2,20.6,00.0,31.1,23.8,11.9,0000.8,0013.37,0010.73,0010.46
2022-12-31 12:20:00,,0812.9,5.03,0.00,22.2,20.6,00.0,31.1,23.8,12.1,0000.0,0012.96,0010.30,0010.04
2022-12-31 12:21:00,,0813.1,4.99,0.00,22.2,20.6,00.0,31.1,23.8,12.2,0000.0,0012.62,0009.96,0009.72
2022-12-31 12:22:00,,0813.0,4.99,0.00,22.1,20.3,00.0,31.1,23.7,12.2,0000.0,0012.67,0009.84,0009.59
2022-12-31 12:23:00,,0812.9,5.03,0.00,22.1,20.5,00.0,31.1,23.7,12.1,0000.1,0013.41,0009.96,0009.73
2022-12-31 12:24:00,,0812.9,5.00,0.00,22.2,21.6,00.0,31.0,24.0,11.7,0001.5,0013.49,0010.01,0009.79
2022-12-31 12:25:00,,0813.1,4.96,0.00,22.3,22.6,00.0,31.0,24.3,11.6,0001.5,0013.51,0010.00,0009.76
2022-12-31 12:26:00,,0812.9,5.00,0.00,22.4,22.7,00.0,31.1,24.4,11.7,0000.4,0013.44,0009.99,0009.76
2022-12-31 12:27:00,,0813.0,5.02,0.00,22.4,22.3,00.0,31.1,24.3,11.7,0000.0,0013.57,0010.06,0009.81
2022-12-31 12:28:00,,0812.9,4.98,0.00,22.4,21.9,00.0,31.2,24.3,11.6,0000.0,0013.66,0010.10,0009.81
2022-12-31 12:29:00,,0812.9,5.03,0.00,22.4,21.7,00.0,31.2,24.2,11.7,0000.0,0013.84,0010.19,0009.87
2022-12-31 12:30:00,,0812.8,4.98,0.00,22.4,21.4,00.0,31.2,24.2,11.8,0000.0,0013.91,0010.28,0009.96
2022-12-31 12:31:00,,0812.8,5.04,0.00,22.4,21.2,00.0,31.2,24.1,11.8,0000.0,0013.99,0010.38,0010.08
2022-12-31 12:32:00,,0812.6,5.04,0.00,22.4,21.1,00.0,31.2,24.1,11.8,0000.0,0014.17,0010.49,0010.19
2022-12-31 12:33:00,,0812.8,4.98,0.00,22.4,21.0,00.0,31.2,24.1,11.8,0000.0,0014.07,0010.61,0010.30
2022-12-31 12:34:00,,0812.8,4.97,0.00,22.3,21.0,00.0,31.2,24.0,11.8,0000.0,0014.12,0010.70,0010.36
2022-12-31 12:35:00,,0812.9,5.01,0.00,22.3,20.9,00.0,31.2,24.0,11.7,0000.0,0014.26,0010.62,0010.28
2022-12-31 12:36:00,,0812.8,5.05,0.00,22.3,21.0,00.0,31.2,24.0,11.6,0000.0,0014.25,0010.62,0010.28
2022-12-31 12:37:00,,0812.9,4.98,0.00,22.3,21.0,00.0,31.2,24.0,11.4,0000.0,0014.36,0010.71,0010.36
2022-12-31 12:38:00,,0812.8,4.97,0.00,22.3,21.0,00.0,31.2,24.0,11.4,0000.0,0014.32,0010.74,0010.41
2022-12-31 12:39:00,,0812.7,5.01,0.00,22.3,20.9,00.0,31.2,24.0,11.6,0000.0,0014.16,0010.70,0010.40
2022-12-31 12:40:00,,0812.6,5.03,0.00,22.3,20.8,00.0,31.2,23.9,11.9,0000.0,0014.05,0010.62,0010.35
2022-12-31 12:41:00,,0812.7,4.94,0.00,22.3,20.8,00.0,31.2,23.9,12.6,0000.0,0013.96,0010.52,0010.26
2022-12-31 12:42:00,,0812.8,5.01,0.00,22.2,20.6,00.0,31.1,23.8,12.8,0000.0,0013.83,0010.41,0010.15
2022-12-31 12:43:00,,0812.7,5.02,0.00,22.1,20.3,00.0,31.1,23.6,12.4,0000.0,0013.78,0010.38,0010.12
2022-12-31 12:44:00,,0812.7,5.03,0.00,22.1,20.1,00.0,31.1,23.6,12.4,0000.0,0013.76,0010.35,0010.08
2022-12-31 12:45:00,,0812.8,4.97,0.00,22.0,20.2,00.0,31.1,23.5,12.7,0000.0,0013.08,0010.21,0009.97
2022-12-31 12:46:00,,0812.7,5.04,0.00,22.1,21.2,00.0,31.0,23.8,12.3,0000.0,0012.79,0010.12,0009.88
2022-12-31 12:47:00,,0812.8,5.01,0.00,22.2,22.2,00.0,31.0,24.1,12.1,0000.0,0012.93,0010.06,0009.82
2022-12-31 12:48:00,,0812.9,4.99,0.00,22.3,22.8,00.0,31.0,24.3,12.0,0000.0,0013.37,0009.96,0009.72
2022-12-31 12:49:00,,0812.9,4.97,0.00,22.4,22.4,00.0,31.1,24.3,12.1,0000.0,0013.36,0009.90,0009.66
2022-12-31 12:50:00,,0812.9,4.98,0.00,22.4,22.0,00.0,31.1,24.2,12.4,0000.0,0013.36,0009.83,0009.58
2022-12-31 12:51:00,,0812.9,5.03,0.00,22.4,21.7,00.0,31.1,24.2,12.5,0000.0,0013.26,0009.79,0009.53
2022-12-31 12:52:00,,0812.9,5.00,0.00,22.4,21.5,00.0,31.1,24.2,13.1,0000.0,0013.11,0009.66,0009.40
2022-12-31 12:53:00,,0813.0,4.99,0.00,22.4,21.4,00.0,31.2,24.1,13.3,0000.0,0012.96,0009.49,0009.23
2022-12-31 12:54:00,,0813.1,4.97,0.00,22.4,21.3,00.0,31.2,24.1,12.5,0000.0,0012.90,0009.45,0009.19
2022-12-31 12:55:00,,0812.9,4.99,0.00,22.4,21.2,00.0,31.2,24.1,12.0,0000.0,0013.07,0009.60,0009.34
2022-12-31 12:56:00,,0812.9,4.99,0.00,22.4,21.2,00.0,31.2,24.1,12.2,0000.0,0013.18,0009.71,0009.46
2022-12-31 12:57:00,,0812.8,5.08,0.00,22.4,21.1,00.0,31.2,24.1,12.3,0000.0,0013.19,0009.72,0009.46
2022-12-31 12:58:00,,0812.8,4.99,0.00,22.4,21.1,00.0,31.2,24.1,12.3,0000.0,0013.15,0009.70,0009.45
2022-12-31 12:59:00,,0812.9,4.98,0.00,22.4,21.0,00.0,31.2,24.1,12.2,0000.0,0012.48,0009.69,0009.45
